Regional Weather Roundup
Issued by NWS Goodland, KS

Home | Current Version | Previous Version | Graphics & Text | Print | Product List | Glossary On
Versions: 1 2 3 4 5 6 7 8 9 10 11 12 13 14 15 16 17 18 19 20 21 22 23 24 25 26 27 28 29 30 31 32 33 34 35 36 37 38 39 40 41 42 43 44 45 46 47 48 49 50
000
ASUS43 KGLD 181308
RWRGLD

GOODLAND FORECAST AREA HOURLY WEATHER ROUNDUP
NATIONAL WEATHER SERVICE GOODLAND KS
700 AM MDT THU SEP 18 2014

...OFFICIAL OBSERVATIONS...

CITY           SKY/WX    TMP DP  RH WIND       PRES   REMARKS
GOODLAND KS    CLOUDY    63  63 100 E6        29.99R FOG
HILL CITY KS   CLOUDY    62  61  96 E12       29.95R FOG
IMPERIAL NEB   FOG       63  62  97 SE9       29.98R VSB 1/2
MCCOOK NEB     FOG       63  62  97 E8        29.96R VSB 1/2
AKRON CO       CLEAR     53  44  71 W6        30.02R
BURLINGTON CO  FOG       53  52  96 CALM      30.00R VSB<1/4
LIMON CO       CLEAR     45  40  82 N6        30.06R
$$

...UNOFFICIAL OBSERVATIONS...

CITY           SKY/WX    TMP DP  RH WIND       PRES   REMARKS
GOVE KS          N/A     67  32  27 MISG        N/A
SHARON SPRINGS   N/A     63  62  97 CALM        N/A
WAKEENEY KS      N/A     66  66  97 MISG        N/A
TRENTON NEB      N/A     62  32  32 SE9         N/A
YUMA CO          N/A     52  51  95 CALM        N/A
$$


USA.gov is the U.S. government's official web portal to all federal, state and local government web resources and services.